Theta_e
311 311 311 311 311 312 313 313 313 314 316 316 317 318 317 316 316 306 302 310 313 322 321 308 301 300 300 297 299 298 288 284 284 287 285 290 289 293 294 292 294 296 294 299 303
310 310 310 310 310 311 312 312 313 315 316 316 317 317 316 315 307 302 316 319 323 324 310 300 297 298 293 294 295 293 286 286 288 287 287 290 290 290 291 291 291 292 297 301 302
310 309 309 309 310 311 311 312 313 315 316 316 317 317 317 311 299 299 320 321 322 320 311 303 301 297 292 292 291 290 285 287 290 292 292 291 291 293 290 289 290 292 295 299 300
310 309 309 309 309 310 311 312 314 315 316 316 316 318 317 304 288 303 320 321 321 309 303 299 297 292 288 287 291 287 291 291 293 293 293 290 291 290 291 290 296 295 297 299 298
310 309 308 308 308 310 311 312 313 314 315 315 317 318 306 295 296 307 317 313 307 305 300 298 294 291 287 289 290 287 289 292 293 293 292 294 291 291 290 294 295 298 298 297 298
310 309 308 308 308 309 311 312 313 314 314 315 316 317 302 289 305 308 307 307 304 302 299 299 296 295 292 290 288 289 291 291 292 291 293 291 290 292 292 294 294 296 296 297 297
311 309 308 307 308 309 311 312 313 314 314 314 315 308 297 294 305 306 306 304 304 302 298 300 299 295 293 289 292 291 287 289 290 290 291 292 289 288 291 293 292 292 293 295 297
311 309 308 307 307 309 311 312 312 313 313 314 315 303 292 306 303 305 305 304 305 303 301 301 301 296 293 292 290 287 286 282 288 291 292 290 283 289 292 291 290 290 291 293 296
311 309 307 306 307 309 311 310 311 313 313 314 302 298 292 309 302 304 304 301 302 303 302 304 299 292 292 286 283 284 279 282 285 291 290 289 284 290 292 291 289 289 290 294 297
311 309 307 306 307 309 311 311 311 309 309 307 302 294 298 296 301 303 303 303 299 298 298 297 293 287 286 284 278 279 279 282 282 287 288 287 285 288 290 290 287 288 289 293 296
311 309 306 306 307 309 305 301 297 297 298 294 295 296 298 302 304 300 302 300 299 294 287 292 285 281 284 285 287 284 283 281 284 288 286 285 286 287 288 289 288 288 290 292 294
311 309 306 305 306 308 304 296 296 299 291 299 298 298 301 301 296 298 302 295 293 287 290 285 281 287 290 290 287 286 282 281 285 288 287 285 285 288 288 288 288 289 289 291 293
311 309 306 304 307 305 300 299 304 300 291 294 297 297 298 300 293 293 297 295 291 288 288 283 286 291 289 287 286 284 282 281 282 287 287 284 282 285 287 289 290 290 290 291 292
311 308 306 304 302 300 298 304 305 301 280 286 291 295 299 298 291 298 298 295 292 286 287 286 289 288 286 285 287 282 287 287 286 282 277 284 271 282 284 286 288 287 289 289 292
311 308 304 305 300 297 301 304 303 297 274 288 290 299 297 293 293 293 298 295 288 288 287 283 285 285 285 286 288 285 288 286 285 282 278 280 274 279 284 282 285 287 288 289 291
311 307 305 300 301 301 304 303 299 280 272 281 290 291 291 292 291 293 293 294 293 288 287 286 291 289 287 289 289 290 287 285 284 282 273 280 275 271 277 281 284 286 287 288 290
310 307 304 302 296 303 303 298 281 274 284 281 283 288 289 286 287 289 287 284 281 277 277 283 285 288 291 286 288 287 281 273 271 272 274 281 275 277 284 285 285 286 286 286 288
308 305 302 302 302 301 298 285 275 280 282 286 287 287 285 286 284 286 284 279 284 283 278 277 275 285 289 286 284 284 282 273 266 271 275 280 274 280 286 287 288 288 287 287 287
305 300 299 299 300 299 291 276 277 281 285 284 286 282 283 285 283 281 281 282 284 285 279 278 278 287 289 289 288 283 280 285 278 269 273 275 280 285 286 285 286 286 286 285 286
298 296 295 301 299 296 285 281 282 286 288 287 282 284 280 282 282 279 280 285 284 286 285 284 276 283 287 289 288 286 287 278 277 266 266 274 276 276 280 282 284 284 283 284 285
295 288 297 300 297 288 279 278 282 287 289 285 283 283 284 282 282 281 280 285 287 286 286 284 280 280 284 282 282 282 281 282 281 278 274 271 273 281 282 283 282 284 284 283 284
292 284 298 297 284 282 278 279 286 284 288 286 286 284 284 284 282 282 282 284 290 288 282 284 282 276 279 284 286 285 283 283 275 276 277 277 274 285 284 284 285 284 285 284 284
286 285 296 295 279 275 275 278 283 283 284 284 283 285 285 283 281 284 284 288 289 287 283 285 277 270 276 280 283 281 283 284 282 280 277 273 274 285 285 284 285 284 283 283 283
286 281 286 289 286 279 276 274 275 285 284 286 284 285 283 281 284 282 282 286 288 288 290 288 281 278 275 279 281 279 281 282 281 276 276 276 276 280 282 282 283 283 282 282 282
286 284 286 279 281 281 282 279 278 277 283 285 281 282 282 279 281 281 284 284 287 289 284 282 270 279 279 279 280 281 281 281 279 279 276 277 277 281 282 281 282 284 284 283 282
285 284 286 284 284 283 283 277 279 281 282 281 278 283 284 280 282 280 283 283 282 285 282 281 272 275 273 277 277 277 279 281 281 281 280 278 277 283 282 283 282 284 284 283 282
292 292 290 285 283 282 281 280 282 284 284 286 285 283 281 284 288 288 288 288 286 283 279 277 273 271 267 275 274 270 275 278 281 281 282 277 280 282 281 282 283 283 284 283 283
Wind_Speed
7 8 9 11 12 13 14 15 15 16 16 15 15 14 14 15 12 9 11 8 10 20 19 11 3 6 5 5 7 4 7 3 2 3 4 5 4 8 4 6 7 5 1 6 9
6 8 9 11 12 13 14 15 15 15 15 14 14 14 13 12 3 10 10 17 18 16 8 8 8 8 5 6 6 7 6 4 4 3 4 4 6 3 6 8 4 5 5 7 5
5 7 9 11 12 13 14 15 15 15 15 14 14 14 12 6 4 6 16 19 20 16 6 3 6 1 7 6 6 5 5 3 6 5 7 3 6 5 4 6 4 7 8 9 7
5 7 9 11 12 13 14 15 15 14 14 14 15 15 13 1 2 5 15 18 17 11 4 3 4 4 6 6 4 9 7 6 2 3 3 2 2 5 7 2 7 6 5 7 10
4 6 8 10 12 13 14 14 14 14 14 14 15 15 4 6 2 7 14 13 8 6 9 4 8 4 7 7 7 9 4 5 5 3 5 5 4 6 6 7 8 9 9 10 10
3 6 8 10 11 13 14 15 14 13 13 16 15 15 2 5 5 7 9 7 8 7 8 9 4 3 8 5 7 5 7 6 3 1 4 4 3 4 7 7 9 9 9 8 9
4 5 7 10 12 13 14 15 14 12 13 15 13 4 6 2 4 7 9 5 4 4 4 4 4 7 5 6 4 9 6 4 6 1 3 4 6 3 4 8 10 10 9 10 9
4 5 6 9 11 14 15 16 14 12 13 12 10 2 3 2 3 8 8 5 8 2 2 4 3 7 6 4 4 3 4 3 3 5 2 4 2 0 6 10 10 10 9 9 10
5 5 5 8 11 14 16 16 14 12 12 12 4 2 2 0 3 6 5 4 8 5 1 1 5 5 3 5 5 3 0 4 2 4 2 3 2 2 7 9 8 8 8 10 13
6 5 5 8 10 13 18 16 10 10 3 3 2 4 4 3 3 6 4 4 3 5 4 7 6 6 6 6 4 3 4 2 3 3 4 4 3 2 5 9 6 7 7 10 15
7 6 5 7 10 13 9 4 4 4 8 3 2 3 2 4 1 6 5 8 2 6 4 5 9 4 2 4 3 1 5 4 3 2 2 3 5 4 2 8 9 9 9 13 17
9 7 5 5 9 11 3 3 2 1 2 1 1 3 1 2 1 9 9 3 3 3 3 9 5 2 2 5 4 6 3 2 1 3 2 5 7 5 4 5 6 7 7 13 18
10 7 5 4 8 3 2 2 2 2 3 2 2 2 1 3 3 6 6 3 6 6 5 6 3 2 1 5 3 4 3 1 1 5 3 2 7 4 2 7 8 8 6 13 18
11 8 4 3 3 1 2 1 3 1 6 1 1 2 2 3 4 3 4 1 6 5 5 6 2 1 5 4 3 2 2 1 2 2 1 4 4 0 3 7 8 8 14 13 16
11 8 4 2 1 1 1 3 4 2 3 2 1 2 1 3 4 5 3 4 5 4 5 5 3 1 2 3 2 1 1 1 2 1 4 1 4 4 4 7 7 10 10 12 15
13 10 5 1 1 1 1 3 2 9 8 1 1 2 2 1 2 1 2 5 3 6 8 3 1 2 1 2 2 1 1 2 2 1 3 4 6 6 2 2 4 6 9 10 14
14 10 5 1 2 2 2 3 6 4 2 2 3 3 1 2 2 1 2 3 4 7 1 2 1 1 1 3 0 2 3 3 5 4 3 4 4 5 4 4 3 7 8 9 10
16 10 4 1 2 4 3 6 4 3 4 3 2 5 3 2 2 1 3 1 3 1 4 6 3 5 2 2 4 5 5 6 6 3 2 3 4 3 6 5 4 4 6 9 13
17 2 3 0 2 3 6 3 9 6 5 7 3 4 2 2 4 3 5 3 6 8 5 5 0 1 3 2 1 3 2 2 5 2 3 3 3 3 5 6 6 7 7 10 11
6 3 1 0 3 1 5 6 4 1 6 1 5 2 5 3 3 3 4 3 4 1 2 3 5 0 1 1 2 1 1 4 3 1 3 4 4 5 3 4 5 9 8 8 9
5 5 1 1 0 6 4 7 3 2 2 5 4 6 4 6 6 4 5 2 3 3 2 1 5 1 2 5 6 2 2 2 2 4 4 2 5 6 5 3 4 4 6 6 7
4 5 1 1 4 2 4 7 4 4 2 2 2 1 6 7 6 3 6 1 5 5 6 1 5 4 6 2 1 1 4 6 5 4 2 2 6 6 7 6 6 4 5 5 6
6 4 3 1 6 4 2 0 3 5 4 5 5 3 1 5 5 5 3 3 1 2 4 2 1 3 4 3 2 4 5 3 5 2 5 6 5 5 7 6 5 5 5 5 5
7 6 3 2 2 8 6 4 4 2 4 4 4 3 5 4 2 5 3 2 3 2 3 3 1 4 5 3 4 5 6 7 6 4 4 6 4 6 7 7 5 5 5 5 5
4 4 7 10 10 6 9 11 9 7 2 4 2 5 8 4 4 3 3 2 2 1 2 3 4 1 1 1 1 3 5 10 12 5 7 3 7 9 11 9 8 7 6 5 5
9 7 2 4 10 15 16 11 14 6 12 7 5 8 5 7 7 10 9 4 5 2 4 1 1 2 3 3 1 4 7 10 13 11 9 5 5 6 7 8 7 8 7 6 5
2 2 6 11 9 15 10 10 15 13 7 6 12 8 4 5 4 5 3 9 8 8 6 6 6 3 5 3 3 8 16 18 10 7 14 12 8 9 6 9 9 8 7 7 6
Wind_Direction
356 354 353 355 356 354 354 353 353 351 348 347 349 348 345 348 330 31 39 316 317 313 319 287 332 322 38 30 4 20 61 86 99 97 136 8 47 331 67 78 67 19 8 270 314
349 347 346 349 351 349 350 349 349 347 344 343 345 343 339 350 343 56 353 336 324 318 332 351 354 355 43 18 18 57 74 42 11 32 52 36 60 20 58 30 9 347 302 316 346
339 339 340 343 345 345 346 345 346 344 340 340 338 339 337 339 61 350 344 333 329 324 218 277 291 193 59 44 0 23 111 91 23 23 18 15 46 37 29 33 314 315 327 359 356
324 331 334 338 340 341 344 340 341 340 336 334 333 332 327 274 114 319 333 327 331 343 15 253 306 55 72 49 24 95 50 87 120 9 1 3 5 48 65 320 310 315 24 18 9
304 321 328 335 336 336 338 336 335 333 331 328 330 331 345 50 23 299 328 330 340 9 31 24 42 75 101 104 56 76 98 68 117 304 18 58 57 108 30 336 349 24 28 23 24
278 311 324 330 331 331 333 331 329 326 326 324 330 333 331 72 260 326 332 337 5 34 15 32 46 64 79 62 80 110 112 108 124 301 31 30 17 62 330 350 17 28 21 24 33
259 298 317 325 328 327 329 327 323 319 319 317 329 339 45 135 316 358 355 344 3 25 52 4 13 79 110 77 110 126 89 65 23 302 344 337 27 68 342 29 17 17 15 12 18
240 277 308 320 327 325 324 321 315 307 312 305 318 20 81 248 325 8 357 331 348 15 88 330 33 84 79 138 70 73 72 63 351 39 297 73 226 179 49 50 8 12 9 8 12
212 259 302 316 326 324 320 316 304 296 298 295 333 86 31 159 14 319 39 339 311 324 295 310 60 97 50 90 43 27 145 124 137 21 329 158 152 217 62 53 21 10 3 10 348
210 247 290 310 326 325 321 303 287 317 292 269 293 51 24 7 326 318 327 343 311 316 14 45 56 70 28 54 170 211 173 123 133 307 15 320 197 123 66 62 39 6 8 355 350
205 230 268 310 321 335 347 358 20 11 38 82 352 106 39 316 325 348 347 333 329 40 84 29 68 88 5 340 281 194 111 113 143 130 65 251 276 199 38 49 35 12 8 350 355
202 221 247 299 327 332 319 54 83 205 72 4 144 84 79 344 345 358 4 45 35 83 41 26 98 155 309 312 38 30 92 37 285 146 128 302 287 266 55 39 46 20 349 356 355
191 213 236 304 323 4 30 87 346 18 124 71 35 38 322 343 63 335 9 339 70 47 26 113 157 155 237 42 70 27 112 98 235 315 252 297 315 125 103 42 29 23 356 2 359
184 196 235 308 350 8 56 23 325 349 72 243 77 7 4 2 49 351 355 54 44 122 85 86 284 185 89 82 11 194 25 34 297 52 172 101 266 70 346 22 21 7 10 353 349
177 182 205 285 275 112 212 318 309 62 0 50 74 294 298 79 134 359 300 18 112 91 106 213 152 170 119 131 19 206 35 312 284 331 56 280 78 261 9 357 0 3 358 353 351
168 171 165 79 358 187 269 331 62 44 257 163 13 143 113 97 47 174 40 43 121 74 33 119 352 70 98 116 77 101 344 291 323 103 36 222 125 294 352 285 338 347 355 345 349
159 154 140 92 196 260 172 37 44 146 324 261 156 153 166 116 53 187 122 106 143 94 23 6 84 166 165 124 349 103 81 350 355 7 221 176 49 242 98 57 56 7 341 336 349
141 120 49 46 13 288 67 53 181 230 186 224 146 147 153 139 354 45 112 33 258 190 119 151 282 178 190 215 166 181 146 157 209 215 256 330 238 195 132 82 49 15 356 357 6
123 76 83 321 350 285 90 119 201 202 149 150 72 120 147 129 125 76 201 226 207 188 144 131 42 93 60 351 124 180 166 152 105 10 41 217 76 159 85 45 16 11 18 10 3
118 99 167 142 345 78 82 247 183 144 131 116 157 138 162 183 120 118 196 256 185 131 34 173 92 10 205 341 286 198 150 79 7 109 275 280 211 199 27 4 12 9 21 10 9
81 108 236 129 204 55 199 224 181 146 119 157 176 139 154 170 150 191 213 289 137 151 51 178 109 208 79 204 180 165 185 166 135 166 184 263 255 175 155 136 84 12 37 21 20
116 136 185 313 92 184 183 192 170 154 48 139 102 99 159 172 138 244 214 173 151 155 173 195 118 162 209 160 178 240 208 161 138 212 221 128 273 150 139 139 117 60 58 38 38
113 104 43 352 172 216 293 339 174 142 198 162 169 190 61 179 122 184 131 340 162 142 162 179 245 72 345 356 347 227 204 199 117 78 206 145 249 188 130 115 119 107 79 62 49
119 134 108 220 247 145 139 207 185 261 167 167 150 122 110 205 74 147 129 339 14 49 69 79 162 190 194 140 127 207 200 187 146 157 197 223 164 182 172 151 135 115 112 94 76
138 182 169 174 209 176 173 168 154 180 251 192 346 200 159 160 76 187 138 120 332 162 37 101 177 247 135 56 9 236 203 193 203 195 183 238 185 181 181 166 166 154 136 110 91
137 148 145 156 134 175 184 195 179 163 160 212 188 181 178 155 168 186 147 181 197 162 159 80 234 92 291 317 301 270 250 213 219 233 263 220 251 173 139 141 144 150 146 137 116
137 102 138 151 143 174 197 178 185 145 220 195 167 123 154 206 144 259 102 152 163 155 164 146 135 106 264 351 355 297 220 206 201 202 211 211 197 157 158 165 160 161 160 156 145